Probability
0 0 0 0 0 0 0 0 0 0 0 0 0 0 0 0 0 0 0 0 0 0 0 0 0 0 0 0 0 0 0 0 0 0 0 0 0 0 0 0 0 0 0
0 0 0 0 0 0 0 0 0 0 0 0 0 0 0 0 0 0 0 0 0 0 0 0 0 0 0 0 0 0 0 0 0 0 0 0 0 0 0 0 0 0 0
0 0 0 0 0 0 0 0 0 0 0 0 0 0 0 0 0 0 0 0 0 0 0 0 0 0 0 0 0 0 0 0 0 0 0 0 0 0 0 0 0 0 0
0 0 0 0 0 0 0 0 0 0 0 0 0 0 0 0 0 0 0 0 0 0 0 0 0 0 0 0 0 0 0 0 0 0 0 0 0 0 0 0 0 0 0
0 0 0 0 0 0 0 0 0 0 0 0 0 0 0 0 0 0 0 0 0 0 0 0 0 0 0 0 0 0 0 0 0 0 0 0 0 0 0 0 0 0 0
0 0 0 0 0 0 0 0 0 0 0 0 0 0 0 0 0 0 0 0 0 0 0 0 0 0 0 0 0 0 0 0 0 0 0 0 0 0 0 0 0 0 0
0 0 0 0 0 0 0 0 0 0 0 0 0 0 0 0 0 0 0 0 0 0 0 0 0 0 0 0 0 0 0 0 0 0 0 0 0 0 0 0 0 0 0
0 0 0 0 0 0 0 0 0 0 0 0 0 0 0 0 0 0 0 0 0 0 0 0 0 0 0 0 0 0 0 0 0 0 0 0 0 0 0 0 0 0 0
0 0 0 0 0 0 0 0 0 0 0 0 0 0 0 0 0 0 0 0 0 0 0 0 0 0 0 0 0 0 0 0 0 0 0 0 0 0 0 0 0 0 0
0 0 0 0 0 0 0 0 0 0 0 0 0 0 0 0 0 0 0 0 0 0 0 0 0 0 0 0 0 0 0 0 0 0 0 0 0 0 0 0 0 0 0
0 0 0 0 0 0 0 0 0 0 0 0 0 0 0 0 0 0 0 0 0 0 0 0 0 0 0 0 0 0 0 0 0 0 0 0 0 0 0 0 0 0 0
0 0 0 0 0 0 0 0 0 0 0 0 0 0 0 0 0 0 0 0 0 0 0 0 0 0 0 0 0 0 0 0 0 0 0 0 0 0 0 0 0 0 0
0 0 0 0 0 0 0 0 0 0 0 0 0 0 0 0 0 0 0 0 0 0 0 0 0 0 0 0 0 0 0 0 0 0 0 0 0 0 0 0 0 0 0
0 0 0 0 0 0 0 0 0 0 0 0 0 0 0 0 0 0 0 0 0 0 0 0 0 0 0 0 0 0 0 0 0 0 0 0 0 0 0 0 0 0 0
0 0 0 0 0 0 0 0 0 0 0 0 0 0 0 0 0 0 0 0 0 0 0 0 0 0 0 0 0 0 0 0 0 0 0 0 0 0 0 0 0 0 0
0 0 0 0 0 0 0 0 0 0 0 0 0 0 0 0 0 0 0 0 0 0 0 0 0 0 0 0 0 0 0 0 0 0 0 0 0 0 0 0 0 0 0
0 0 0 0 0 0 0 0 0 0 0 0 0 0 0 0 0 0 0 0 0 0 0 0 0 0 0 0 0 0 0 0 0 0 0 0 0 0 0 0 0 0 0
0 0 0 0 0 0 0 0 0 0 0 0 0 0 0 0 0 0 0 0 0 0 0 0 0 0 0 0 0 0 0 0 0 0 0 0 0 0 0 0 0 0 0
0 0 0 0 0 0 0 0 0 0 0 0 0 0 0 0 0 0 0 0 0 0 0 0 0 0 0 0 0 0 0 0 0 0 0 0 0 0 0 0 0 0 0
0 0 0 0 0 0 0 0 0 0 0 0 0 0 0 0 0 0 0 0 0 0 0 0 0 0 0 0 0 0 0 0 0 0 0 0 0 0 0 0 0 0 0
0 0 0 0 0 0 0 0 0 0 0 0 0 0 0 0 0 0 0 0 0 0 0 0 0 0 0 0 0 0 0 0 0 0 0 0 0 0 0 0 0 0 0
0 0 0 0 0 0 0 0 0 0 0 0 0 0 0 0 0 0 0 0 0 0 0 0 0 0 0 0 0 0 0 0 0 0 0 0 0 0 0 0 0 0 0
0 0 0 0 0 0 0 0 0 0 0 0 0 0 0 0 0 0 0 0 0 0 0 0 0 0 0 0 0 0 0 0 0 0 0 0 0 0 0 0 0 0 0
0 0 0 0 0 0 0 0 0 0 0 0 0 0 0 0 0 0 0 0 0 0 0 0 0 0 0 0 0 0 0 0 0 0 0 0 0 0 0 0 0 0 0
0 0 0 0 0 0 0 0 0 0 0 0 0 0 0 0 0 0 0 0 0 0 0 0 0 0 0 0 0 0 0 0 0 0 0 0 0 0 0 0 0 0 0
0 0 0 0 0 0 0 0 0 0 0 0 0 0 0 0 0 0 0 0 0 0 0 0 0 0 0 0 0 0 0 0 0 0 0 0 0 0 0 0 0 0 0
Wind_Speed
13 13 13 12 12 11 11 10 9 9 8 8 7 7 6 5 4 3 3 2 2 3 4 5 5 6 7 7 7 7 8 9 11 10 10 10 12 14 13 13 13 14 12
13 13 13 12 12 12 11 10 9 9 8 8 7 7 6 5 4 3 3 3 3 4 5 6 7 6 7 8 7 8 8 9 10 12 11 11 13 13 13 13 13 12 12
12 12 12 12 12 11 11 10 9 9 8 7 6 6 5 4 4 3 3 4 4 5 6 7 7 8 8 8 9 9 8 8 9 10 11 10 11 11 12 12 13 11 13
11 12 12 11 11 10 10 9 8 8 7 6 6 6 4 3 3 4 4 4 5 6 6 7 8 8 9 9 9 9 9 10 10 10 10 10 10 11 10 9 10 10 11
11 11 11 10 9 9 9 8 7 7 7 6 5 3 2 2 6 7 7 7 7 8 8 8 7 8 10 9 9 10 10 9 9 9 10 10 10 9 9 9 10 10 11
10 10 9 9 8 8 8 7 7 6 5 4 3 3 3 5 7 8 10 9 8 9 9 8 8 8 7 9 12 14 14 13 12 11 10 10 12 11 10 9 9 10 9
9 9 8 8 7 7 6 6 5 4 4 3 3 3 3 7 5 7 9 11 10 8 8 8 8 7 8 9 9 12 14 15 15 12 12 12 12 11 11 11 10 10 10
8 7 7 7 7 6 6 5 4 3 3 3 3 4 3 5 5 8 13 12 9 8 8 8 8 9 7 9 12 13 13 10 9 9 10 11 11 11 11 10 10 10 11
8 7 6 6 6 5 5 5 4 3 3 3 3 4 5 3 5 8 13 10 7 8 8 7 7 8 7 10 12 13 13 10 7 8 11 13 13 13 11 8 8 7 8
7 6 6 6 5 5 5 4 4 3 3 3 3 4 5 5 4 5 12 8 7 8 8 7 3 5 9 11 12 12 12 11 12 11 9 8 8 7 7 7 6 7 6
6 6 6 5 5 4 4 3 3 3 3 4 4 3 3 4 2 2 8 8 8 9 8 7 5 6 11 12 12 10 10 12 12 10 8 7 6 5 5 5 5 5 5
5 5 5 4 3 3 2 2 3 3 3 3 4 4 4 3 3 4 6 8 9 9 7 7 7 10 13 13 10 8 12 12 7 6 6 6 6 6 6 6 6 4 4
4 4 4 3 3 3 3 3 2 3 3 4 4 5 5 5 3 3 7 9 9 9 7 9 11 12 13 8 6 10 10 6 6 6 6 5 5 5 6 6 6 5 3
3 3 2 2 2 2 3 4 4 5 5 5 5 6 6 6 6 8 9 8 8 8 8 8 9 9 8 7 7 6 5 5 6 6 6 5 5 5 5 6 6 6 5
2 1 1 2 3 2 3 5 6 7 7 7 7 7 6 7 8 11 9 8 8 9 10 7 6 6 7 7 7 7 6 6 6 6 6 6 5 5 5 6 5 6 6
1 1 2 2 2 3 2 3 5 4 3 1 3 6 6 6 9 10 11 11 11 12 8 5 6 7 7 7 8 7 7 7 7 6 6 6 6 6 6 6 6 6 7
2 3 3 2 2 3 4 3 2 3 4 3 0 3 6 9 9 10 11 11 9 8 5 6 6 6 7 7 7 7 7 7 7 6 6 6 6 6 6 7 7 7 7
3 1 2 2 3 3 4 4 4 5 3 2 1 2 6 8 8 9 11 8 5 5 5 5 6 7 7 7 7 7 7 7 7 7 7 6 6 7 7 7 8 9 8
4 2 2 2 2 3 3 4 4 5 5 5 5 4 6 7 5 5 7 5 5 5 6 6 6 6 7 7 7 7 7 6 7 6 6 7 6 7 7 7 7 7 7
1 4 4 2 2 2 3 4 5 5 5 5 5 6 6 6 5 6 5 5 5 5 6 6 6 7 7 7 7 7 7 6 7 6 7 6 6 7 8 8 8 7 7
2 5 3 1 2 4 4 5 5 5 5 5 5 6 7 5 5 6 5 5 5 6 6 6 7 7 7 7 7 8 8 7 7 7 7 7 7 7 7 7 7 8 7
2 2 2 3 4 5 4 4 4 5 5 5 4 4 5 4 4 5 5 5 5 5 5 6 6 6 6 7 7 7 7 8 8 7 7 7 7 7 8 8 8 8 7
2 3 4 4 4 3 2 4 5 5 4 4 4 5 5 5 5 5 6 6 5 5 5 5 6 6 7 6 6 6 7 8 8 8 7 6 6 6 7 8 9 9 10
4 3 4 4 3 3 4 4 4 5 5 5 5 5 5 5 5 6 6 6 6 6 5 5 6 9 11 9 7 7 8 9 9 7 8 7 7 6 6 7 7 8 7
4 4 4 4 4 4 4 4 4 4 4 5 5 5 4 4 5 5 6 6 7 6 8 7 7 8 11 12 12 10 10 9 8 9 7 6 7 7 7 8 7 8 8
4 4 4 4 4 4 4 4 5 5 5 5 5 5 5 5 6 6 6 7 7 7 8 7 10 11 13 11 12 11 9 9 9 10 8 5 7 8 8 6 8 8 9
Wind_Direction
76 79 81 83 86 90 91 93 95 97 99 100 100 98 95 90 83 73 57 42 349 335 321 315 311 312 304 305 295 289 286 287 289 294 299 302 301 294 294 294 293 291 286
79 81 83 84 85 86 88 89 92 92 93 94 96 95 90 82 74 61 32 9 345 332 324 314 307 305 302 293 298 295 293 295 291 294 298 298 295 293 292 294 293 292 293
82 84 83 83 83 84 85 85 86 87 87 88 89 86 80 73 63 44 14 352 337 326 319 312 309 306 300 302 302 296 296 295 293 293 294 295 293 294 297 294 296 297 294
81 81 80 78 80 82 82 81 80 82 83 79 77 76 74 64 41 14 353 337 324 317 311 305 301 302 302 305 296 294 297 300 297 294 293 295 295 298 298 300 302 301 299
85 83 81 81 82 81 79 78 77 75 77 76 77 78 68 58 33 1 337 328 323 315 310 306 303 306 302 297 302 308 306 300 297 294 294 296 298 303 303 304 299 300 297
88 87 85 83 83 83 83 81 79 76 76 74 65 48 33 50 44 4 333 325 317 312 314 312 304 283 283 276 274 281 289 292 297 297 295 296 300 302 305 301 300 301 302
89 88 89 90 88 87 86 84 81 78 71 55 41 28 45 73 37 354 338 314 308 313 312 309 307 314 304 307 301 286 276 262 262 277 287 292 298 304 306 301 299 301 299
94 95 94 94 91 85 81 76 69 59 47 35 21 11 9 68 40 351 332 302 304 310 308 306 305 310 336 334 316 304 299 297 287 280 291 298 303 308 305 300 300 298 295
101 98 95 92 89 85 78 70 55 39 30 12 17 1 352 52 49 353 331 314 315 316 313 309 309 315 357 329 306 300 303 308 296 273 276 279 282 282 285 293 296 298 304
98 93 87 82 77 72 67 55 49 28 17 1 14 356 350 6 54 354 332 318 325 322 319 316 310 327 329 315 307 306 311 319 317 310 297 290 289 286 265 274 294 300 305
97 90 81 77 75 66 59 45 27 13 13 359 358 355 358 0 31 28 337 327 329 318 314 316 337 349 321 311 303 305 315 310 305 311 320 331 335 329 319 312 307 306 310
99 91 81 65 51 61 46 24 2 347 349 359 356 349 351 350 353 1 321 309 308 308 311 322 337 333 316 305 303 315 307 300 309 327 341 346 344 339 333 331 330 321 296
99 87 74 62 50 26 2 0 348 346 354 356 352 349 347 348 0 330 314 309 304 308 319 319 310 306 305 300 294 297 298 315 336 341 353 356 350 344 339 339 343 339 332
86 77 62 39 40 41 356 3 4 5 2 357 355 350 345 342 356 354 342 333 328 321 325 314 300 296 305 321 316 313 326 349 343 346 357 0 2 359 359 356 354 357 3
69 52 25 37 35 20 35 34 11 38 23 352 352 349 344 341 357 340 327 329 330 331 324 323 344 350 351 349 345 347 350 352 352 0 5 9 13 13 9 7 5 7 11
8 5 5 20 20 5 30 105 93 53 108 62 352 339 339 353 334 328 328 325 321 321 322 345 354 350 347 343 344 346 351 353 351 356 8 15 17 17 18 19 19 19 19
355 352 348 1 8 7 16 24 72 143 178 177 312 347 345 342 336 335 334 327 319 327 348 355 350 346 341 340 342 344 346 351 351 360 12 20 22 26 30 30 28 27 27
326 52 322 352 11 19 24 26 27 22 28 36 83 22 354 345 338 336 334 333 351 360 1 351 344 340 338 338 340 342 345 353 2 8 13 21 25 33 37 38 38 34 33
331 4 2 10 20 32 28 30 37 33 23 13 9 21 357 339 326 332 339 358 356 352 352 345 339 336 335 335 338 344 352 2 11 11 17 23 27 37 43 45 52 50 42
73 56 341 347 39 39 34 33 38 31 28 24 15 11 355 348 359 3 3 359 353 349 346 339 334 335 336 338 344 351 359 13 19 20 24 26 30 36 45 47 47 51 50
57 122 190 262 50 40 39 40 40 35 33 29 23 21 355 348 359 357 355 353 349 344 340 334 332 337 343 345 349 355 2 15 21 20 25 28 33 37 40 47 50 52 52
35 75 79 59 59 48 37 47 48 49 43 30 19 23 4 2 6 358 353 351 344 338 333 330 331 336 342 344 346 349 0 14 17 14 17 27 40 43 42 42 44 48 48
58 72 81 78 80 98 49 50 50 51 47 36 27 18 14 11 6 360 353 350 344 341 341 341 338 342 347 345 343 346 1 6 360 357 4 22 35 41 44 45 47 48 44
74 73 76 78 71 65 60 57 53 47 40 36 37 30 20 11 6 360 355 350 348 348 352 353 352 354 357 357 354 6 15 354 338 343 4 19 32 38 40 40 43 43 46
76 71 72 73 68 66 63 58 54 51 46 40 38 33 26 22 16 7 1 359 1 4 7 9 2 2 3 9 11 11 359 338 330 330 341 17 35 37 37 40 41 41 40
75 69 69 73 70 61 60 60 57 50 47 44 42 36 28 25 22 13 6 7 7 11 12 12 11 17 14 13 12 3 349 343 339 327 324 15 40 35 27 35 39 42 44